| time (UTC) | temp C | wind direction | speed KPH | gust KPH | rain 1hr cm | rain 24hr cm | rain mn cm | humidity % | barometer mb |
| 20260510190501 | 12 | 37 | 3.2 | 9.7 | 0.00 | 0.00 | 0.00 | 64 | 1011.5 |
| 20260510190005 | 12 | 41 | 4.8 | 14.5 | 0.00 | 0.00 | 0.00 | 62 | 1011.4 |
| 20260510185501 | 12 | 43 | 4.8 | 16.1 | 0.00 | 0.00 | 0.00 | 62 | 1011.5 |
| 20260510185002 | 12 | 38 | 3.2 | 16.1 | 0.00 | 0.00 | 0.00 | 62 | 1011.5 |
| 20260510184523 | 12 | 23 | 4.8 | 16.1 | 0.00 | 0.00 | 0.00 | 62 | 1011.5 |
| 20260510184002 | 12 | 19 | 6.4 | 16.1 | 0.00 | 0.00 | 0.00 | 61 | 1011.6 |
| 20260510183522 | 13 | 27 | 6.4 | 16.1 | 0.00 | 0.00 | 0.00 | 60 | 1011.7 |
| 20260510183002 | 13 | 35 | 8.0 | 22.5 | 0.00 | 0.00 | 0.00 | 60 | 1011.8 |
| 20260510182502 | 13 | 30 | 8.0 | 22.5 | 0.00 | 0.00 | 0.00 | 59 | 1011.7 |
| 20260510182002 | 13 | 27 | 6.4 | 19.3 | 0.00 | 0.00 | 0.00 | 59 | 1011.8 |
| 20260510181503 | 13 | 36 | 4.8 | 17.7 | 0.00 | 0.00 | 0.00 | 59 | 1011.8 |
| 20260510181003 | 13 | 34 | 6.4 | 16.1 | 0.00 | 0.00 | 0.00 | 61 | 1011.8 |
| 20260510180503 | 13 | 37 | 6.4 | 14.5 | 0.00 | 0.00 | 0.00 | 61 | 1011.8 |
| 20260510180003 | 13 | 33 | 6.4 | 17.7 | 0.00 | 0.00 | 0.00 | 60 | 1011.9 |
| 20260510175504 | 13 | 19 | 6.4 | 20.9 | 0.00 | 0.00 | 0.00 | 60 | 1011.9 |
| 20260510175003 | 13 | 35 | 6.4 | 22.5 | 0.00 | 0.00 | 0.00 | 60 | 1011.9 |
| 20260510174502 | 13 | 43 | 8.0 | 22.5 | 0.00 | 0.00 | 0.00 | 61 | 1012.0 |
| 20260510174003 | 13 | 34 | 9.7 | 20.9 | 0.00 | 0.00 | 0.00 | 62 | 1012.0 |
| 20260510173501 | 13 | 25 | 9.7 | 24.1 | 0.00 | 0.00 | 0.00 | 63 | 1012.0 |
| 20260510173002 | 13 | 27 | 8.0 | 24.1 | 0.00 | 0.00 | 0.00 | 62 | 1012.0 |
| 20260510172501 | 13 | 35 | 6.4 | 19.3 | 0.00 | 0.00 | 0.00 | 62 | 1012.0 |
| 20260510172002 | 13 | 35 | 8.0 | 19.3 | 0.00 | 0.00 | 0.00 | 61 | 1012.0 |
| 20260510171502 | 13 | 26 | 6.4 | 17.7 | 0.00 | 0.00 | 0.00 | 63 | 1012.0 |
| 20260510171001 | 13 | 26 | 6.4 | 17.7 | 0.00 | 0.00 | 0.00 | 62 | 1012.0 |
| 20260510170502 | 13 | 24 | 8.0 | 20.9 | 0.00 | 0.00 | 0.00 | 63 | 1011.9 |
| 20260510170002 | 13 | 17 | 8.0 | 20.9 | 0.00 | 0.00 | 0.00 | 63 | 1012.0 |
| 20260510165502 | 13 | 29 | 6.4 | 19.3 | 0.00 | 0.00 | 0.00 | 63 | 1012.1 |
| 20260510165002 | 13 | 43 | 6.4 | 19.3 | 0.00 | 0.00 | 0.00 | 64 | 1012.1 |
| 20260510164502 | 13 | 41 | 8.0 | 22.5 | 0.00 | 0.00 | 0.00 | 64 | 1012.2 |
| 20260510164002 | 13 | 42 | 9.7 | 22.5 | 0.00 | 0.00 | 0.00 | 64 | 1012.2 |
| 20260510163502 | 13 | 43 | 9.7 | 22.5 | 0.00 | 0.00 | 0.00 | 65 | 1012.3 |
| 20260510163002 | 13 | 41 | 6.4 | 20.9 | 0.00 | 0.00 | 0.00 | 65 | 1012.3 |
| 20260510162502 | 13 | 34 | 4.8 | 20.9 | 0.00 | 0.00 | 0.00 | 67 | 1012.4 |
| 20260510162002 | 13 | 28 | 4.8 | 17.7 | 0.00 | 0.00 | 0.00 | 67 | 1012.4 |
| 20260510161502 | 13 | 27 | 6.4 | 24.1 | 0.00 | 0.00 | 0.00 | 67 | 1012.4 |
| 20260510161002 | 13 | 27 | 8.0 | 24.1 | 0.00 | 0.00 | 0.00 | 66 | 1012.5 |
| 20260510160502 | 13 | 44 | 8.0 | 20.9 | 0.00 | 0.00 | 0.00 | 66 | 1012.5 |
| 20260510160002 | 13 | 49 | 8.0 | 20.9 | 0.00 | 0.00 | 0.00 | 65 | 1012.6 |
| 20260510155523 | 13 | 37 | 6.4 | 20.9 | 0.00 | 0.00 | 0.00 | 67 | 1012.6 |
| 20260510155002 | 13 | 31 | 6.4 | 25.7 | 0.00 | 0.00 | 0.00 | 66 | 1012.7 |
| 20260510154502 | 13 | 34 | 8.0 | 25.7 | 0.00 | 0.00 | 0.00 | 66 | 1012.7 |
| 20260510154002 | 13 | 28 | 6.4 | 19.3 | 0.00 | 0.00 | 0.00 | 66 | 1012.7 |
| 20260510153502 | 13 | 20 | 6.4 | 17.7 | 0.00 | 0.00 | 0.00 | 66 | 1012.8 |
| 20260510153023 | 13 | 32 | 8.0 | 22.5 | 0.00 | 0.00 | 0.00 | 66 | 1012.7 |
| 20260510152502 | 13 | 44 | 6.4 | 22.5 | 0.00 | 0.00 | 0.00 | 66 | 1012.8 |
| 20260510152002 | 13 | 38 | 6.4 | 24.1 | 0.00 | 0.00 | 0.00 | 66 | 1012.8 |
| 20260510151502 | 13 | 33 | 8.0 | 24.1 | 0.00 | 0.00 | 0.00 | 66 | 1012.9 |
| 20260510151002 | 13 | 29 | 6.4 | 20.9 | 0.00 | 0.00 | 0.00 | 67 | 1012.9 |
| 20260510150524 | 13 | 29 | 4.8 | 20.9 | 0.00 | 0.00 | 0.00 | 67 | 1013.0 |
| 20260510150003 | 13 | 45 | 4.8 | 16.1 | 0.00 | 0.00 | 0.00 | 68 | 1013.0 |
| 20260510145503 | 13 | 46 | 6.4 | 19.3 | 0.00 | 0.00 | 0.00 | 67 | 1013.0 |
| 20260510145025 | 13 | 39 | 6.4 | 19.3 | 0.00 | 0.00 | 0.00 | 66 | 1013.0 |
| 20260510144503 | 13 | 41 | 6.4 | 16.1 | 0.00 | 0.00 | 0.00 | 67 | 1013.1 |
| 20260510144004 | 13 | 36 | 6.4 | 20.9 | 0.00 | 0.00 | 0.00 | 67 | 1013.3 |
| 20260510143502 | 13 | 29 | 8.0 | 20.9 | 0.00 | 0.00 | 0.00 | 67 | 1013.1 |
| 20260510143003 | 13 | 38 | 8.0 | 22.5 | 0.00 | 0.00 | 0.00 | 67 | 1013.1 |
| 20260510142502 | 13 | 35 | 8.0 | 22.5 | 0.00 | 0.00 | 0.00 | 66 | 1013.2 |
| 20260510142003 | 13 | 28 | 8.0 | 22.5 | 0.00 | 0.00 | 0.00 | 67 | 1013.2 |
| 20260510141502 | 14 | 26 | 6.4 | 22.5 | 0.00 | 0.00 | 0.00 | 67 | 1013.3 |
| 20260510141002 | 14 | 21 | 8.0 | 19.3 | 0.00 | 0.00 | 0.00 | 67 | 1013.2 |
| 20260510140502 | 14 | 33 | 8.0 | 19.3 | 0.00 | 0.00 | 0.00 | 67 | 1013.3 |
| 20260510140002 | 14 | 42 | 8.0 | 19.3 | 0.00 | 0.00 | 0.00 | 66 | 1013.3 |
| 20260510135502 | 14 | 42 | 8.0 | 19.3 | 0.00 | 0.00 | 0.00 | 66 | 1013.4 |
| 20260510135002 | 14 | 47 | 8.0 | 22.5 | 0.00 | 0.00 | 0.00 | 67 | 1013.4 |
| 20260510134502 | 14 | 48 | 8.0 | 22.5 | 0.00 | 0.00 | 0.00 | 66 | 1013.3 |
| 20260510134002 | 14 | 43 | 8.0 | 24.1 | 0.00 | 0.00 | 0.00 | 65 | 1013.4 |
| 20260510133502 | 14 | 41 | 8.0 | 24.1 | 0.00 | 0.00 | 0.00 | 66 | 1013.5 |
| 20260510133002 | 14 | 42 | 6.4 | 19.3 | 0.00 | 0.00 | 0.00 | 66 | 1013.6 |
| 20260510132502 | 14 | 47 | 6.4 | 19.3 | 0.00 | 0.00 | 0.00 | 65 | 1013.6 |
| 20260510132023 | 15 | 39 | 6.4 | 16.1 | 0.00 | 0.00 | 0.00 | 63 | 1013.7 |
| 20260510131502 | 15 | 27 | 6.4 | 17.7 | 0.00 | 0.00 | 0.00 | 63 | 1013.7 |
| 20260510131002 | 15 | 34 | 6.4 | 19.3 | 0.00 | 0.00 | 0.00 | 63 | 1013.7 |
| 20260510130523 | 15 | 47 | 6.4 | 19.3 | 0.00 | 0.00 | 0.00 | 62 | 1013.7 |
| 20260510130004 | 15 | 50 | 8.0 | 22.5 | 0.00 | 0.00 | 0.00 | 63 | 1013.7 |
| 20260510125502 | 15 | 48 | 8.0 | 22.5 | 0.00 | 0.00 | 0.00 | 63 | 1013.8 |
| 20260510125023 | 15 | 49 | 8.0 | 22.5 | 0.00 | 0.00 | 0.00 | 62 | 1013.8 |
| 20260510124502 | 15 | 34 | 6.4 | 19.3 | 0.00 | 0.00 | 0.00 | 64 | 1013.9 |
| 20260510124002 | 15 | 34 | 8.0 | 19.3 | 0.00 | 0.00 | 0.00 | 64 | 1013.9 |
| 20260510123502 | 15 | 39 | 8.0 | 19.3 | 0.00 | 0.00 | 0.00 | 64 | 1013.8 |
| 20260510123024 | 15 | 41 | 8.0 | 20.9 | 0.00 | 0.00 | 0.00 | 65 | 1013.8 |
| 20260510122523 | 15 | 28 | 8.0 | 20.9 | 0.00 | 0.00 | 0.00 | 65 | 1013.9 |
| 20260510122002 | 15 | 24 | 8.0 | 19.3 | 0.00 | 0.00 | 0.00 | 64 | 1014.0 |
| 20260510121502 | 15 | 26 | 6.4 | 17.7 | 0.00 | 0.00 | 0.00 | 64 | 1014.0 |
| 20260510121002 | 15 | 26 | 6.4 | 22.5 | 0.00 | 0.00 | 0.00 | 64 | 1014.0 |
| 20260510120502 | 15 | 30 | 6.4 | 22.5 | 0.00 | 0.00 | 0.00 | 64 | 1014.0 |
| 20260510120002 | 15 | 26 | 8.0 | 19.3 | 0.00 | 0.00 | 0.00 | 63 | 1014.1 |
| 20260510115503 | 15 | 38 | 8.0 | 19.3 | 0.00 | 0.00 | 0.00 | 62 | 1014.1 |
| 20260510115003 | 15 | 58 | 6.4 | 20.9 | 0.00 | 0.00 | 0.00 | 63 | 1014.1 |
| 20260510114503 | 15 | 64 | 6.4 | 20.9 | 0.00 | 0.00 | 0.00 | 64 | 1014.2 |
| 20260510114004 | 15 | 60 | 8.0 | 20.9 | 0.00 | 0.00 | 0.00 | 64 | 1014.2 |
| 20260510113503 | 14 | 51 | 9.7 | 22.5 | 0.00 | 0.00 | 0.00 | 64 | 1014.2 |
| 20260510113024 | 14 | 38 | 9.7 | 22.5 | 0.00 | 0.00 | 0.00 | 64 | 1014.3 |
| 20260510112523 | 14 | 34 | 8.0 | 22.5 | 0.00 | 0.00 | 0.00 | 64 | 1014.3 |
| 20260510112025 | 14 | 43 | 8.0 | 24.1 | 0.00 | 0.00 | 0.00 | 66 | 1014.4 |
| 20260510111502 | 14 | 44 | 11.3 | 24.1 | 0.00 | 0.00 | 0.00 | 64 | 1014.5 |
| 20260510111002 | 14 | 41 | 8.0 | 22.5 | 0.00 | 0.00 | 0.00 | 63 | 1014.5 |
| 20260510110502 | 14 | 50 | 8.0 | 19.3 | 0.00 | 0.00 | 0.00 | 65 | 1014.7 |
| 20260510110002 | 14 | 52 | 8.0 | 22.5 | 0.00 | 0.00 | 0.00 | 65 | 1014.7 |
| 20260510105502 | 14 | 57 | 6.4 | 22.5 | 0.00 | 0.00 | 0.00 | 66 | 1014.7 |
| 20260510105002 | 13 | 57 | 6.4 | 27.4 | 0.00 | 0.00 | 0.00 | 66 | 1014.8 |
| 20260510104502 | 13 | 52 | 8.0 | 27.4 | 0.00 | 0.00 | 0.00 | 65 | 1014.8 |
| 20260510104002 | 14 | 39 | 9.7 | 19.3 | 0.00 | 0.00 | 0.00 | 64 | 1014.8 |
| 20260510103523 | 14 | 30 | 9.7 | 22.5 | 0.00 | 0.00 | 0.00 | 64 | 1014.8 |
| 20260510103002 | 14 | 33 | 9.7 | 22.5 | 0.00 | 0.00 | 0.00 | 64 | 1014.8 |
| 20260510102502 | 14 | 28 | 8.0 | 20.9 | 0.00 | 0.00 | 0.00 | 66 | 1014.9 |
| 20260510102002 | 14 | 24 | 8.0 | 19.3 | 0.00 | 0.00 | 0.00 | 67 | 1014.8 |
| 20260510101502 | 13 | 31 | 8.0 | 19.3 | 0.00 | 0.00 | 0.00 | 67 | 1014.9 |
| 20260510101002 | 13 | 24 | 6.4 | 19.3 | 0.00 | 0.00 | 0.00 | 67 | 1014.9 |
| 20260510100523 | 13 | 19 | 6.4 | 19.3 | 0.00 | 0.00 | 0.00 | 66 | 1014.9 |
| 20260510100003 | 13 | 21 | 6.4 | 22.5 | 0.00 | 0.00 | 0.00 | 68 | 1015.0 |
| 20260510095502 | 13 | 22 | 6.4 | 22.5 | 0.00 | 0.00 | 0.00 | 69 | 1015.0 |
| 20260510095002 | 13 | 33 | 6.4 | 20.9 | 0.00 | 0.00 | 0.00 | 68 | 1015.0 |
| 20260510094502 | 13 | 44 | 8.0 | 20.9 | 0.00 | 0.00 | 0.00 | 68 | 1014.9 |
| 20260510094002 | 13 | 51 | 6.4 | 20.9 | 0.00 | 0.00 | 0.00 | 70 | 1015.0 |
| 20260510093523 | 13 | 38 | 6.4 | 20.9 | 0.00 | 0.00 | 0.00 | 70 | 1015.0 |
| 20260510093004 | 12 | 27 | 6.4 | 19.3 | 0.00 | 0.00 | 0.00 | 72 | 1015.1 |
| 20260510092502 | 12 | 30 | 6.4 | 16.1 | 0.00 | 0.00 | 0.00 | 71 | 1015.1 |
| 20260510092002 | 12 | 32 | 6.4 | 24.1 | 0.00 | 0.00 | 0.00 | 73 | 1015.1 |
| 20260510091502 | 12 | 27 | 8.0 | 24.1 | 0.00 | 0.00 | 0.00 | 73 | 1015.2 |
| 20260510091002 | 12 | 24 | 6.4 | 24.1 | 0.00 | 0.00 | 0.00 | 74 | 1015.2 |
| 20260510090502 | 12 | 29 | 3.2 | 16.1 | 0.00 | 0.00 | 0.00 | 76 | 1015.3 |
| 20260510090003 | 11 | 16 | 4.8 | 17.7 | 0.00 | 0.00 | 0.00 | 76 | 1015.3 |
| 20260510085502 | 11 | 24 | 6.4 | 17.7 | 0.00 | 0.00 | 0.00 | 75 | 1015.4 |
| 20260510085024 | 11 | 36 | 6.4 | 16.1 | 0.00 | 0.00 | 0.00 | 76 | 1015.4 |
| 20260510084524 | 11 | 34 | 4.8 | 16.1 | 0.00 | 0.00 | 0.00 | 75 | 1015.4 |
| 20260510084003 | 11 | 34 | 4.8 | 14.5 | 0.00 | 0.00 | 0.00 | 77 | 1015.4 |
| 20260510083504 | 11 | 37 | 6.4 | 17.7 | 0.00 | 0.00 | 0.00 | 77 | 1015.4 |
| 20260510083025 | 11 | 37 | 6.4 | 19.3 | 0.00 | 0.00 | 0.00 | 77 | 1015.4 |
| 20260510082504 | 11 | 35 | 6.4 | 19.3 | 0.00 | 0.00 | 0.00 | 77 | 1015.5 |
| 20260510082004 | 11 | 31 | 6.4 | 19.3 | 0.00 | 0.00 | 0.00 | 78 | 1015.4 |
| 20260510081503 | 11 | 27 | 6.4 | 14.5 | 0.00 | 0.00 | 0.00 | 78 | 1015.5 |
| 20260510081002 | 11 | 30 | 6.4 | 14.5 | 0.00 | 0.00 | 0.00 | 78 | 1015.5 |
| 20260510080502 | 11 | 27 | 4.8 | 17.7 | 0.00 | 0.00 | 0.00 | 78 | 1015.5 |
| 20260510080002 | 11 | 22 | 6.4 | 17.7 | 0.00 | 0.00 | 0.00 | 79 | 1015.4 |
| 20260510075524 | 11 | 34 | 4.8 | 16.1 | 0.00 | 0.00 | 0.00 | 79 | 1015.4 |
| 20260510075002 | 10 | 40 | 4.8 | 16.1 | 0.00 | 0.00 | 0.00 | 80 | 1015.5 |
| 20260510074502 | 10 | 33 | 4.8 | 16.1 | 0.00 | 0.00 | 0.00 | 81 | 1015.5 |
| 20260510074002 | 10 | 31 | 4.8 | 17.7 | 0.00 | 0.00 | 0.00 | 81 | 1015.6 |
| 20260510073524 | 10 | 33 | 4.8 | 17.7 | 0.00 | 0.00 | 0.00 | 81 | 1015.5 |
| 20260510073003 | 10 | 29 | 4.8 | 12.9 | 0.00 | 0.00 | 0.00 | 81 | 1015.5 |
| 20260510072502 | 10 | 27 | 4.8 | 12.9 | 0.00 | 0.00 | 0.00 | 81 | 1015.5 |
| 20260510072003 | 10 | 24 | 4.8 | 11.3 | 0.00 | 0.00 | 0.00 | 81 | 1015.5 |
| 20260510071503 | 10 | 23 | 4.8 | 11.3 | 0.00 | 0.00 | 0.00 | 81 | 1015.4 |
| 20260510071002 | 10 | 22 | 3.2 | 11.3 | 0.00 | 0.00 | 0.00 | 81 | 1015.4 |
| 20260510070503 | 10 | 26 | 3.2 | 9.7 | 0.00 | 0.00 | 0.00 | 82 | 1015.5 |
| 20260510070002 | 10 | 28 | 4.8 | 17.7 | 0.00 | 0.00 | 0.00 | 82 | 1015.5 |
| 20260510065504 | 10 | 26 | 4.8 | 17.7 | 0.00 | 0.00 | 0.00 | 82 | 1015.5 |
| 20260510065004 | 10 | 25 | 3.2 | 12.9 | 0.00 | 0.00 | 0.00 | 82 | 1015.5 |
| 20260510064503 | 10 | 28 | 4.8 | 12.9 | 0.00 | 0.00 | 0.00 | 82 | 1015.5 |
| 20260510064003 | 10 | 40 | 4.8 | 12.9 | 0.00 | 0.00 | 0.00 | 82 | 1015.4 |
| 20260510063503 | 10 | 43 | 4.8 | 12.9 | 0.00 | 0.00 | 0.00 | 82 | 1015.5 |
| 20260510063003 | 10 | 35 | 4.8 | 11.3 | 0.00 | 0.00 | 0.00 | 83 | 1015.4 |
| 20260510062503 | 10 | 31 | 3.2 | 11.3 | 0.00 | 0.00 | 0.00 | 83 | 1015.4 |
| 20260510062003 | 9 | 39 | 3.2 | 12.9 | 0.00 | 0.00 | 0.00 | 82 | 1015.4 |
| 20260510061503 | 9 | 35 | 3.2 | 12.9 | 0.00 | 0.00 | 0.00 | 82 | 1015.4 |
| 20260510061003 | 9 | 25 | 3.2 | 11.3 | 0.00 | 0.00 | 0.00 | 82 | 1015.4 |
| 20260510060504 | 9 | 26 | 3.2 | 11.3 | 0.00 | 0.00 | 0.00 | 82 | 1015.4 |
| 20260510060003 | 9 | 34 | 3.2 | 8.0 | 0.00 | 0.00 | 0.00 | 82 | 1015.4 |
| 20260510055503 | 9 | 28 | 3.2 | 8.0 | 0.00 | 0.00 | 0.00 | 82 | 1015.4 |
| 20260510055003 | 9 | 17 | 4.8 | 14.5 | 0.00 | 0.00 | 0.00 | 82 | 1015.4 |
| 20260510054503 | 9 | 25 | 3.2 | 14.5 | 0.00 | 0.00 | 0.00 | 82 | 1015.4 |
| 20260510054004 | 9 | 42 | 3.2 | 8.0 | 0.00 | 0.00 | 0.00 | 82 | 1015.3 |
| 20260510053503 | 9 | 36 | 1.6 | 6.4 | 0.00 | 0.00 | 0.00 | 82 | 1015.3 |
| 20260510053004 | 9 | 39 | 3.2 | 9.7 | 0.00 | 0.00 | 0.00 | 82 | 1015.3 |
| 20260510052504 | 9 | 42 | 3.2 | 12.9 | 0.00 | 0.00 | 0.00 | 82 | 1015.3 |
| 20260510052005 | 9 | 30 | 3.2 | 12.9 | 0.00 | 0.00 | 0.00 | 81 | 1015.3 |
| 20260510051504 | 9 | 25 | 3.2 | 11.3 | 0.00 | 0.00 | 0.00 | 81 | 1015.4 |
| 20260510051024 | 9 | 27 | 3.2 | 11.3 | 0.00 | 0.00 | 0.00 | 81 | 1015.4 |
| 20260510050503 | 9 | 36 | 3.2 | 8.0 | 0.00 | 0.00 | 0.00 | 81 | 1015.4 |
| 20260510050003 | 10 | 47 | 1.6 | 8.0 | 0.00 | 0.00 | 0.00 | 81 | 1015.4 |
| 20260510045524 | 10 | 43 | 1.6 | 3.2 | 0.00 | 0.00 | 0.00 | 81 | 1015.4 |
| 20260510045024 | 10 | 19 | 3.2 | 16.1 | 0.00 | 0.00 | 0.00 | 81 | 1015.3 |
| 20260510044503 | 10 | 23 | 4.8 | 16.1 | 0.00 | 0.00 | 0.00 | 81 | 1015.3 |
| 20260510044003 | 10 | 35 | 3.2 | 12.9 | 0.00 | 0.00 | 0.00 | 80 | 1015.2 |
| 20260510043503 | 10 | 36 | 1.6 | 6.4 | 0.00 | 0.00 | 0.00 | 80 | 1015.3 |
| 20260510043024 | 10 | 22 | 1.6 | 6.4 | 0.00 | 0.00 | 0.00 | 80 | 1015.3 |
| 20260510042503 | 10 | 29 | 3.2 | 8.0 | 0.00 | 0.00 | 0.00 | 80 | 1015.3 |
| 20260510042003 | 10 | 28 | 3.2 | 11.3 | 0.00 | 0.00 | 0.00 | 80 | 1015.2 |
| 20260510041503 | 10 | 25 | 3.2 | 11.3 | 0.00 | 0.00 | 0.00 | 79 | 1015.3 |
| 20260510041003 | 10 | 35 | 3.2 | 9.7 | 0.00 | 0.00 | 0.00 | 79 | 1015.3 |
| 20260510040503 | 10 | 36 | 3.2 | 8.0 | 0.00 | 0.00 | 0.00 | 79 | 1015.3 |
| 20260510040003 | 10 | 32 | 3.2 | 8.0 | 0.00 | 0.00 | 0.00 | 78 | 1015.3 |
| 20260510035503 | 10 | 35 | 3.2 | 8.0 | 0.00 | 0.00 | 0.00 | 78 | 1015.3 |
| 20260510035024 | 10 | 35 | 3.2 | 16.1 | 0.00 | 0.00 | 0.00 | 78 | 1015.4 |
| 20260510034503 | 10 | 27 | 3.2 | 16.1 | 0.00 | 0.00 | 0.00 | 78 | 1015.4 |
| 20260510034003 | 11 | 26 | 4.8 | 14.5 | 0.00 | 0.00 | 0.00 | 77 | 1015.5 |
| 20260510033524 | 11 | 28 | 4.8 | 16.1 | 0.00 | 0.00 | 0.00 | 77 | 1015.5 |
| 20260510033024 | 11 | 29 | 6.4 | 17.7 | 0.00 | 0.00 | 0.00 | 76 | 1015.6 |
| 20260510032503 | 11 | 33 | 6.4 | 17.7 | 0.00 | 0.00 | 0.00 | 75 | 1015.6 |
| 20260510032003 | 11 | 38 | 4.8 | 14.5 | 0.00 | 0.00 | 0.00 | 75 | 1015.5 |
| 20260510031503 | 11 | 38 | 4.8 | 14.5 | 0.00 | 0.00 | 0.00 | 74 | 1015.5 |
| 20260510031003 | 11 | 34 | 4.8 | 14.5 | 0.00 | 0.00 | 0.00 | 74 | 1015.6 |
| 20260510030503 | 11 | 28 | 4.8 | 14.5 | 0.00 | 0.00 | 0.00 | 73 | 1015.6 |
| 20260510030003 | 11 | 30 | 4.8 | 14.5 | 0.00 | 0.00 | 0.00 | 72 | 1015.6 |
| 20260510025503 | 11 | 33 | 3.2 | 12.9 | 0.00 | 0.00 | 0.00 | 71 | 1015.7 |
| 20260510025003 | 11 | 43 | 4.8 | 16.1 | 0.00 | 0.00 | 0.00 | 71 | 1015.7 |
| 20260510024504 | 11 | 52 | 4.8 | 16.1 | 0.00 | 0.00 | 0.00 | 70 | 1015.6 |
| 20260510024003 | 11 | 40 | 4.8 | 14.5 | 0.00 | 0.00 | 0.00 | 69 | 1015.5 |
| 20260510023504 | 11 | 37 | 4.8 | 14.5 | 0.00 | 0.00 | 0.00 | 68 | 1015.6 |
| 20260510023004 | 11 | 42 | 4.8 | 14.5 | 0.00 | 0.00 | 0.00 | 67 | 1015.5 |
| 20260510022504 | 11 | 36 | 6.4 | 19.3 | 0.00 | 0.00 | 0.00 | 67 | 1015.4 |
| 20260510022004 | 11 | 38 | 6.4 | 20.9 | 0.00 | 0.00 | 0.00 | 66 | 1015.3 |
| 20260510021504 | 11 | 35 | 6.4 | 20.9 | 0.00 | 0.00 | 0.00 | 66 | 1015.3 |
| 20260510021004 | 11 | 25 | 4.8 | 19.3 | 0.00 | 0.00 | 0.00 | 66 | 1015.3 |
| 20260510020503 | 11 | 25 | 3.2 | 19.3 | 0.00 | 0.00 | 0.00 | 66 | 1015.3 |
| 20260510020003 | 11 | 25 | 3.2 | 9.7 | 0.00 | 0.00 | 0.00 | 66 | 1015.4 |
| 20260510015503 | 11 | 27 | 3.2 | 9.7 | 0.00 | 0.00 | 0.00 | 66 | 1015.4 |
| 20260510015003 | 11 | 29 | 3.2 | 9.7 | 0.00 | 0.00 | 0.00 | 67 | 1015.4 |
| 20260510014503 | 11 | 30 | 1.6 | 6.4 | 0.00 | 0.00 | 0.00 | 66 | 1015.4 |
| 20260510014003 | 11 | 30 | 1.6 | 11.3 | 0.00 | 0.00 | 0.00 | 66 | 1015.4 |
| 20260510013503 | 11 | 36 | 3.2 | 11.3 | 0.00 | 0.00 | 0.00 | 65 | 1015.4 |
| 20260510013003 | 11 | 44 | 3.2 | 8.0 | 0.00 | 0.00 | 0.00 | 65 | 1015.3 |
| 20260510012503 | 11 | 43 | 3.2 | 8.0 | 0.00 | 0.00 | 0.00 | 65 | 1015.3 |
| 20260510012003 | 11 | 37 | 3.2 | 11.3 | 0.00 | 0.00 | 0.00 | 65 | 1015.4 |
| 20260510011503 | 11 | 41 | 1.6 | 11.3 | 0.00 | 0.00 | 0.00 | 64 | 1015.5 |
| 20260510011003 | 11 | 48 | 1.6 | 4.8 | 0.00 | 0.00 | 0.00 | 65 | 1015.4 |
| 20260510010503 | 11 | 36 | 1.6 | 3.2 | 0.00 | 0.00 | 0.00 | 64 | 1015.4 |
| 20260510010003 | 12 | 32 | 1.6 | 8.0 | 0.00 | 0.00 | 0.00 | 64 | 1015.4 |
| 20260510005504 | 12 | 34 | 1.6 | 8.0 | 0.00 | 0.00 | 0.00 | 64 | 1015.4 |
| 20260510005003 | 12 | 28 | 0.0 | 3.2 | 0.00 | 0.00 | 0.00 | 64 | 1015.5 |
| 20260510004503 | 12 | 28 | 0.0 | 3.2 | 0.00 | 0.00 | 0.00 | 63 | 1015.4 |
| 20260510004003 | 12 | 35 | 1.6 | 6.4 | 0.00 | 0.00 | 0.00 | 62 | 1015.4 |
| 20260510003503 | 12 | 37 | 1.6 | 6.4 | 0.00 | 0.00 | 0.00 | 61 | 1015.4 |
| 20260510003003 | 12 | 33 | 1.6 | 4.8 | 0.00 | 0.00 | 0.00 | 61 | 1015.4 |
| 20260510002505 | 12 | 17 | 1.6 | 6.4 | 0.00 | 0.00 | 0.00 | 62 | 1015.4 |
| 20260510002003 | 12 | 20 | 1.6 | 6.4 | 0.00 | 0.00 | 0.00 | 61 | 1015.5 |
| 20260510001503 | 12 | 36 | 1.6 | 6.4 | 0.00 | 0.00 | 0.00 | 60 | 1015.5 |
| 20260510001003 | 12 | 28 | 1.6 | 6.4 | 0.00 | 0.00 | 0.00 | 60 | 1015.5 |
| 20260510000524 | 12 | 30 | 1.6 | 4.8 | 0.00 | 0.00 | 0.00 | 59 | 1015.5 |
| 20260510000024 | 12 | 52 | 1.6 | 4.8 | 0.00 | 0.00 | 0.00 | 58 | 1015.5 |
| 20260509235503 | 12 | 54 | 1.6 | 4.8 | 0.00 | 0.00 | 0.00 | 58 | 1015.5 |
| 20260509235003 | 12 | 15 | 1.6 | 4.8 | 0.00 | 0.00 | 0.00 | 57 | 1015.5 |
| 20260509234503 | 12 | 20 | 1.6 | 4.8 | 0.00 | 0.00 | 0.00 | 57 | 1015.3 |
| 20260509234025 | 12 | 49 | 1.6 | 11.3 | 0.00 | 0.00 | 0.00 | 56 | 1015.3 |
| 20260509233524 | 12 | 49 | 1.6 | 11.3 | 0.00 | 0.00 | 0.00 | 56 | 1015.2 |
| 20260509233024 | 12 | 39 | 3.2 | 8.0 | 0.00 | 0.00 | 0.00 | 55 | 1015.2 |
| 20260509232504 | 12 | 45 | 3.2 | 8.0 | 0.00 | 0.00 | 0.00 | 55 | 1015.2 |
| 20260509232004 | 13 | 45 | 1.6 | 8.0 | 0.00 | 0.00 | 0.00 | 55 | 1015.2 |
| 20260509231505 | 13 | 44 | 0.0 | 4.8 | 0.00 | 0.00 | 0.00 | 54 | 1015.3 |
| 20260509231004 | 13 | 75 | 0.0 | 3.2 | 0.00 | 0.00 | 0.00 | 54 | 1015.3 |
| 20260509230504 | 13 | 63 | 1.6 | 4.8 | 0.00 | 0.00 | 0.00 | 53 | 1015.3 |
| 20260509230005 | 13 | 36 | 1.6 | 11.3 | 0.00 | 0.00 | 0.00 | 53 | 1015.2 |
| 20260509225503 | 13 | 39 | 4.8 | 16.1 | 0.00 | 0.00 | 0.00 | 52 | 1015.1 |
| 20260509225003 | 13 | 38 | 4.8 | 16.1 | 0.00 | 0.00 | 0.00 | 51 | 1015.0 |
| 20260509224503 | 13 | 28 | 1.6 | 8.0 | 0.00 | 0.00 | 0.00 | 52 | 1015.0 |
| 20260509224004 | 13 | 24 | 1.6 | 8.0 | 0.00 | 0.00 | 0.00 | 53 | 1015.0 |
| 20260509223503 | 13 | 23 | 3.2 | 8.0 | 0.00 | 0.00 | 0.00 | 52 | 1015.0 |
| 20260509223005 | 13 | 33 | 1.6 | 6.4 | 0.00 | 0.00 | 0.00 | 52 | 1015.1 |
| 20260509222524 | 13 | 39 | 1.6 | 8.0 | 0.00 | 0.00 | 0.00 | 52 | 1015.0 |
| 20260509222024 | 14 | 41 | 1.6 | 8.0 | 0.00 | 0.00 | 0.00 | 52 | 1015.1 |
| 20260509221503 | 14 | 34 | 3.2 | 6.4 | 0.00 | 0.00 | 0.00 | 52 | 1015.1 |
| 20260509221003 | 14 | 39 | 3.2 | 9.7 | 0.00 | 0.00 | 0.00 | 52 | 1015.0 |
| 20260509220503 | 14 | 51 | 3.2 | 9.7 | 0.00 | 0.00 | 0.00 | 51 | 1014.9 |
| 20260509220003 | 15 | 43 | 3.2 | 11.3 | 0.00 | 0.00 | 0.00 | 51 | 1014.9 |
| 20260509215503 | 15 | 36 | 3.2 | 11.3 | 0.00 | 0.00 | 0.00 | 50 | 1014.9 |
| 20260509215005 | 15 | 44 | 3.2 | 14.5 | 0.00 | 0.00 | 0.00 | 51 | 1014.8 |
| 20260509214504 | 15 | 47 | 3.2 | 14.5 | 0.00 | 0.00 | 0.00 | 51 | 1014.7 |
| 20260509214003 | 15 | 42 | 4.8 | 14.5 | 0.00 | 0.00 | 0.00 | 51 | 1014.7 |
| 20260509213524 | 15 | 40 | 3.2 | 12.9 | 0.00 | 0.00 | 0.00 | 51 | 1014.8 |
| 20260509213024 | 15 | 43 | 3.2 | 9.7 | 0.00 | 0.00 | 0.00 | 52 | 1014.9 |
| 20260509212503 | 15 | 55 | 3.2 | 9.7 | 0.00 | 0.00 | 0.00 | 51 | 1014.7 |
| 20260509212003 | 15 | 54 | 3.2 | 9.7 | 0.00 | 0.00 | 0.00 | 51 | 1014.7 |
| 20260509211503 | 15 | 47 | 1.6 | 8.0 | 0.00 | 0.00 | 0.00 | 52 | 1014.7 |
| 20260509211003 | 16 | 65 | 1.6 | 6.4 | 0.00 | 0.00 | 0.00 | 51 | 1014.7 |
| 20260509210503 | 16 | 68 | 3.2 | 12.9 | 0.00 | 0.00 | 0.00 | 50 | 1014.7 |
| 20260509210005 | 16 | 57 | 4.8 | 12.9 | 0.00 | 0.00 | 0.00 | 51 | 1014.7 |
| 20260509205503 | 16 | 51 | 4.8 | 17.7 | 0.00 | 0.00 | 0.00 | 50 | 1014.6 |
| 20260509205003 | 16 | 53 | 4.8 | 17.7 | 0.00 | 0.00 | 0.00 | 51 | 1014.6 |
| 20260509204505 | 16 | 60 | 3.2 | 16.1 | 0.00 | 0.00 | 0.00 | 51 | 1014.5 |
| 20260509204004 | 16 | 59 | 3.2 | 16.1 | 0.00 | 0.00 | 0.00 | 51 | 1014.5 |
| 20260509203524 | 16 | 52 | 4.8 | 14.5 | 0.00 | 0.00 | 0.00 | 51 | 1014.4 |
| 20260509203003 | 16 | 49 | 4.8 | 14.5 | 0.00 | 0.00 | 0.00 | 53 | 1014.2 |
| 20260509202503 | 16 | 53 | 3.2 | 11.3 | 0.00 | 0.00 | 0.00 | 54 | 1014.2 |
| 20260509202004 | 16 | 51 | 1.6 | 11.3 | 0.00 | 0.00 | 0.00 | 55 | 1014.3 |
| 20260509201504 | 16 | 33 | 1.6 | 6.4 | 0.00 | 0.00 | 0.00 | 54 | 1014.2 |
| 20260509201005 | 17 | 38 | 3.2 | 8.0 | 0.00 | 0.00 | 0.00 | 54 | 1014.0 |
| 20260509200525 | 17 | 50 | 3.2 | 11.3 | 0.00 | 0.00 | 0.00 | 54 | 1014.0 |
| 20260509200004 | 17 | 53 | 3.2 | 11.3 | 0.00 | 0.00 | 0.00 | 53 | 1013.9 |
| 20260509195526 | 17 | 48 | 3.2 | 9.7 | 0.00 | 0.00 | 0.00 | 53 | 1013.9 |
| 20260509195025 | 17 | 57 | 3.2 | 9.7 | 0.00 | 0.00 | 0.00 | 52 | 1013.8 |
| 20260509194504 | 17 | 64 | 3.2 | 14.5 | 0.00 | 0.00 | 0.00 | 52 | 1013.9 |
| 20260509194004 | 17 | 56 | 6.4 | 17.7 | 0.00 | 0.00 | 0.00 | 51 | 1013.7 |
| 20260509193504 | 18 | 59 | 6.4 | 17.7 | 0.00 | 0.00 | 0.00 | 50 | 1013.6 |
| 20260509193003 | 18 | 63 | 4.8 | 16.1 | 0.00 | 0.00 | 0.00 | 51 | 1013.7 |
| 20260509192525 | 18 | 61 | 6.4 | 17.7 | 0.00 | 0.00 | 0.00 | 51 | 1013.7 |
| 20260509192004 | 18 | 58 | 6.4 | 17.7 | 0.00 | 0.00 | 0.00 | 51 | 1013.6 |
| 20260509191503 | 18 | 58 | 4.8 | 17.7 | 0.00 | 0.00 | 0.00 | 51 | 1013.6 |
| 20260509191005 | 18 | 58 | 4.8 | 11.3 | 0.00 | 0.00 | 0.00 | 51 | 1013.6 |